Tracking 30072 objects as of 15-Jan-2025
HD Live streaming from Space Station
objects crossing your sky now

STARLINK-5579

Track STARLINK-5579 now!
10-day predictions
STARLINK-5579 is classified as:


NORAD ID: 55746
Int'l Code: 2023-028F
Perigee: 577.0 km
Apogee: 581.3 km
Inclination: 70.0 °
Period: 96.1 minutes
Semi major axis: 6950 km
RCS: Unknown
Launch date: March 3, 2023
Source: United States (US)
Launch site: AIR FORCE WESTERN TEST RANGE (AFWTR)
Your satellite tracking list
Your tracking list is empty




NASA's NSSDC Master Catalog

Two Line Element Set (TLE):
1 55746U 23028F   25014.92184138  .00002661  00000-0  23069-3 0  9998
2 55746  69.9987 220.2797 0003113 265.6994  94.3809 14.98337801103310
Source of the keplerian elements: AFSPC